Preview of NWS' New Version of Forecast
This preview is not operational and should not be used for support decisions.
Latest weather observations around

Seattle, Seattle Boeing Field (KBFI)

Using English Units (Switch to International System of Units)
Date/ Time (PDT) Wind (mph) Vis. (mi) Weather Sky Cond. Temp (°F) Rel. Humidity Wind Chill (°F) Heat Index (°F) Pressure Precip. (in)
Air Dwpt 6 hour Altimeter (inHg) Sea level (inHg) 1 hr 3 hr 6 hr
Max Min
Apr 19 19:53 NW 5 10 Mostly Clear FEW030 57 36     45%     30.23 30.23      
Apr 19 18:53 NW 6 10 Mostly Clear FEW025 59 34     39%     30.23 30.23      
Apr 19 17:53 NW 7 10 Mostly Clear FEW025 61 34     36%     30.24 30.24      
Apr 19 16:53 WNW 7 10 Clear CLR 61 36     39%     30.24 30.24      
Apr 19 15:53 WNW 8 10 Clear CLR 61 36     39%     30.25 30.25      
Apr 19 14:53 3 10 Mostly Clear FEW030 61 35     38%     30.26 30.26      
Apr 19 13:53 7 10 Partly Cloudy SCT030 59 36     42%     30.26 30.26      
Apr 19 12:53 3 10 Clear CLR 58 40     51%     30.27 30.26      
Apr 19 10:53 N 3 10 Clear CLR 53 39     59%     30.29 30.28      
Apr 19 09:53 NE 5 10 Clear CLR 52 41     66%     30.28 30.27      
Apr 19 08:53 Calm 10 Mostly Clear FEW002 47 42     83%     30.28 30.27      
Apr 19 08:06 Calm 10 Partly Cloudy SCT002 43 42     97%     30.27        
Apr 19 07:53 Calm 0.75 Fog/Mist VV002 42 42     100%     30.26 30.26      
Apr 19 07:07 SSE 3 0.25 Fog VV002 41 41     100% 39   30.25        
Apr 19 06:53 Calm 0.75 Fog/Mist VV002 43 41     93%     30.25 30.24      
Apr 19 06:49 Calm 1 Fog/Mist VV002 43 41     93%     30.24        
Apr 19 06:45 Calm 2 Fog/Mist SCT002 42 40     92%     30.24        
Apr 19 05:53 Calm 10 Clear CLR 43 39     86%     30.23 30.23      
Apr 19 04:53 Calm 10 Clear CLR 43 39     86%     30.22 30.22      
Apr 19 03:53 Calm 10 Clear CLR 44 40     85%     30.21 30.21      
Apr 19 02:53 Calm 10 Clear CLR 45 41     86%     30.22 30.22      
Apr 19 01:53 NNE 3 10 Clear CLR 47 42     83% 46   30.21 30.21      
Apr 19 00:53 NE 3 10 Partly Cloudy SCT100 48 42     80% 47   30.2 30.2      
Apr 18 23:53 NE 5 10 Mostly Cloudy BKN100 49 42     77% 47   30.2 30.2      
Apr 18 21:53 Calm 10 Cloudy OVC070 51 43     74%     30.19 30.19      
Apr 18 20:53 NNW 6 10 Mostly Cloudy FEW070 BKN100 52 39     61%     30.18 30.18      
Apr 18 19:53 5 10 Mostly Cloudy BKN100 53 41     63%     30.17 30.17 0 0  
Apr 18 18:53 N 5 10 Light Rain BKN060 BKN080 54 41     61%     30.16 30.16 0    
Apr 18 17:53 SE 9 10 Mostly Cloudy SCT040 BKN090 55 40     57%     30.17 30.16      
Apr 18 16:53 NNW 10 10 Mostly Cloudy SCT030 BKN200 57 38     49%     30.16 30.16      
Apr 18 15:53 NNW 9 10 Mostly Cloudy FEW030 BKN200 56 39     53%     30.17 30.16      
Apr 18 14:53 NW 8 10 Clear CLR 56 40     55%     30.18 30.17      
Apr 18 13:53 NW 10 10 Mostly Cloudy FEW025 BKN200 54 41     61%     30.19 30.19      
Apr 18 11:53 Calm 10 Cloudy SCT100 OVC200 53 38     56%     30.22 30.22      
Apr 18 10:53 NE 7 10 Cloudy FEW025 FEW100 OVC200 51 38     61%     30.23 30.23      
Apr 18 09:53 ENE 6 10 Cloudy FEW023 FEW090 OVC200 50 39     66% 48   30.24 30.24      
Apr 18 08:53 N 3 10 Clear CLR 48 38     68% 47   30.23 30.23      
Apr 18 07:53 N 3 10 Mostly Clear FEW095 46 39     76% 45   30.23 30.22      
Apr 18 06:53 NNW 3 10 Mostly Clear FEW095 44 39     82% 43   30.23 30.22      
Apr 18 05:53 Calm 10 Cloudy OVC120 44 38     79%     30.23 30.23      
Apr 18 04:53 Calm 10 Cloudy OVC110 44 38     79%     30.24 30.24      
Apr 18 03:53 SSE 3 10 Cloudy OVC120 44 38     79% 43   30.26 30.25      
Apr 18 02:53 ESE 3 10 Clear CLR 44 38     79% 43   30.26 30.25      
Apr 18 01:53 SE 3 10 Mostly Clear FEW120 44 38     79% 43   30.26 30.26      
Apr 18 00:53 SSE 7 10 Clear CLR 45 38     76% 41   30.27 30.27      
Apr 17 23:53 SSE 7 10 Mostly Cloudy BKN200 46 38     73% 42   30.27 30.27      
Apr 17 22:53 S 7 10 Mostly Cloudy FEW055 BKN095 46 38     73% 42   30.27 30.27      
Apr 17 21:53 7 10 Cloudy SCT045 BKN055 OVC090 48 39     71% 45   30.27 30.27      
Apr 17 20:53 SSW 6 10 Mostly Clear FEW036 48 38     68% 45   30.26 30.26      
Apr 17 19:53 WSW 5 10 Mostly Cloudy SCT036 BKN044 49 37     63% 47   30.24 30.24      
Apr 17 18:53 WSW 10 10 Cloudy SCT037 BKN047 OVC065 52 36     54%     30.24 30.24      
Apr 17 17:53 WSW 9 10 Cloudy BKN070 OVC090 52 38     59%     30.24 30.24      
Apr 17 16:53 SSW 13 10 Cloudy OVC110 52 38     59%     30.24 30.23      
Apr 17 15:53 SSW 14 10 Mostly Cloudy SCT030 BKN250 53 38     56%     30.23 30.23      
Apr 17 14:53 SSW 20 10 Partly Cloudy and Windy SCT090 52 38     59%     30.23 30.23      
Apr 17 13:53 SSW 15 10 Partly Cloudy SCT090 52 37     57%     30.22 30.22      
Apr 17 12:53 SSW 15 10 Partly Cloudy SCT040 SCT120 51 38     61%     30.21 30.21      
Apr 17 11:53 SSW 15 10 Mostly Cloudy SCT035 BKN040 51 38     61%     30.2 30.19      
Apr 17 10:53 S 16 10 Mostly Cloudy BKN030 BKN040 50 38     63% 44   30.18 30.18      
Apr 17 09:53 SSW 13 10 Cloudy OVC029 48 38     68% 43   30.16 30.16      
Apr 17 08:53 SSW 15 10 Mostly Cloudy BKN027 46 37     71% 40   30.14 30.13      
Apr 17 07:53 S 10 10 Partly Cloudy SCT023 45 38     76% 40   30.11 30.11      
Apr 17 06:55 S 9 10 Mostly Cloudy BKN028 44 37     76% 39   30.09        
Apr 17 06:53 S 9 10 Mostly Cloudy BKN028 44 37     76% 39   30.08 30.08      
Apr 17 05:53 S 8 10 Partly Cloudy SCT025 44 37     76% 40   30.05 30.05      
Apr 17 04:53 S 9 10 Mostly Clear FEW023 43 36     76% 38   30.02 30.01     0
Apr 17 03:53 SSW 8 10 Clear CLR 45 38     76% 41   29.98 29.98      
Apr 17 02:53 SSW 11 10 Cloudy FEW023 BKN080 OVC090 46 39     76% 41   29.95 29.95      
Apr 17 02:26 SSW 8 10 Cloudy SCT022 BKN060 OVC080 46 40     79% 42   29.94        
Apr 17 01:53 SSW 9 10 Cloudy BKN022 OVC065 47 40     76% 43   29.93 29.93 0 0  
Apr 17 00:53 SW 13 10 Light Rain OVC018 47 41     80% 41   29.91 29.91 0    
Apr 16 23:53 7 10 Cloudy OVC017 47 41     80% 44   29.88 29.88 0    
Apr 16 22:53 SSW 15 10 Cloudy SCT020 BKN027 OVC065 47 42     83% 41   29.86 29.86 0   0
Apr 16 21:53 S 7 10 Cloudy SCT020 BKN027 OVC065 47 42     83% 44   29.84 29.83      
Jun 12 03:53 SSE 8 10 Mostly Cloudy BKN060 53 51     93%     30 30      
Jun 12 02:53 SSE 7 10 Mostly Cloudy BKN055 54 51     90%     30 29.99      
Jun 11 22:53 Calm 10 Clear CLR 61 49     64%     29.99 29.99      
Jun 11 14:53 NW 8 10 Clear   69 48     47%     30 29.99      
Jun 11 01:53 Calm 10 Mostly Cloudy BKN085 57 47     69%     29.97 29.97      
Jun 10 23:53 Calm 10 Cloudy OVC075 59 47     64%     29.95 29.95      
Jun 10 15:53 NNW 7 10 Clear   65 44     47%     29.85 29.85      
Jun 08 08:44 SSE 8 10 Light Rain SCT007 BKN038 OVC095 57 57     100%     29.66   0    
Jun 07 14:53 6 10 Cloudy SCT140 OVC250 79 54     42%   79 29.69 29.69      
Jun 06 00:53 3 10 Clear CLR 60 46     60%     30.04 30.04      
Jun 05 20:53 NW 6 10 Clear CLR 65 46     50%     30.05 30.05      
Jun 05 19:53 NW 6 10 Mostly Cloudy BKN200 67 47     49%     30.05 30.05      
Jun 05 15:53 WNW 9 10 Mostly Cloudy BKN250 71 45     39%   70 30.08 30.07